User: anonymous   Login
Location: Dittelspoint
(48.7198°N, 10.7214°E)
Time: 15:54:26
(UTC+00:00)
Language:

Cosmos 962 Rocket - Orbit

View from above orbital plane
View from above orbital plane
View from above satellite
View from above satellite

Ground track
Ground track

The orbit data is extracted from the following two-line orbital elements,

1 10461U 77107B   21163.70714397  .00000084  00000-0  69898-4 0  9991
2 10461  82.9492  12.0797 0034100  34.1988  36.8256 13.76835754190925
Epoch (UTC): 12 June 2021 16:58:17
Eccentricity: 0.0034100
inclination: 82.9492°
perigee height: 950 km
apogee height: 1000 km
right ascension of ascending node: 12.0797°
argument of perigee: 34.1988°
revolutions per day: 13.76835754
mean anomaly at epoch: 36.8256°
orbit number at epoch: 19092

The dashed part of the orbit path shows where the satellite is in the earth's shadow,  

DLR